STARLINK-37270, 68727

Orbit data source: Space-Track

STARLINK-37270, 68727 is a payload satellite owned by SpaceX/Seattle (US) in LEO that was launched on Tue, 14 Apr 2026 UTC via an FALCON 9 launch vehicle from the Air Force Eastern Test Range (AFETR). Payload-class satellites include a variety of spacecraft equipped with specific instruments for various scientific and technological missions. These include communications satellites like Starlink; space stations such as the ISS; scientific satellites like the Hubble; Earth observation satellites from companies like Planet Labs, Umbra, and HawkEye 360; GPS; miniature CubeSats for education and research; and military/defense satellites.

Loading next visibility...
Identifier
68727, 2026-081AE
Orbit
LEO
Country
Flag of USUS
Related business
Manufacturer
SpaceX/Seattle
Mission
Operational spacecraft
Bus & Motor
STARLINK V2MO, Unknown motor
Mass
575 kg wet, ~530 kg dry
Launch date (UTC)
2026-04-14 (2 months ago)
Launch vehicle
FALCON 9
Launch site
Air Force Eastern Test Range (AFETR)
Object type
Payload
Rocket body
Debris
Shape & HBR
Unknown shape, 14.5 m
Radar Cross Section
Large (>1 m²)

Expand to show TLE details & history
Last TLE update: 1 day ago

TLE from 1 day ago
0 STARLINK-37270
1 68727U 26081AE  26170.62207857  .00026367  00000-0  78867-3 0  9993
2 68727  53.1593 279.6039 0000907  82.1137 277.9969 15.34403199 10360
Epoch: 2026-06-19T14:55Z
TLE epoch observation values (Epoch: 2026-06-19T14:55:47.588Z)
Latitude
0.00002°
Longitude
147.80722°
Altitude
463.509 km
Speed
7.636 km/s
True Right ascension
18h 38m 24s
True Declination
0° 00' 00"
Sunlit
Object was in full shadow at epoch
Visualization orbit readout
Latitude
Unknown
Longitude
Unknown
Altitude
Unknown
Speed
Unknown
Apparent Right ascension
Unknown
Apparent Declination
Unknown
Sunlit
N/A
Visualization observer readout
Local Sidereal Time
07:18:25
Azimuth
Unknown
Elevation
Unknown
Doppler factor
Unknown
Orbital elements
Apogee altitude
463.571 km
Perigee altitude
462.33 km
Semi-major axis
6,841.088 km
Eccentricity
0.00009
Inclination
53.1593°
RAAN
279.6039°
Arg. of periapsis
82.1137°
True anomaly
277.98661°
Mean anomaly
277.9969°
Eccentric anomaly
277.99175°
Mean motion
3.8358 °/min
Orbital period
93.85 mins
BSTAR
0.00078867
Loading maneuver chart data...
Computing Atmospheric mass density...
Loading historical data...
Loading historical data...
Loading historical data...
Loading historical data...
Loading historical data...
Loading historical data...
Loading historical data...

Documentation

Showing up to 5 results
|